Date String (YYYY-MM-DD hh:mm:ss) UTC,Instrument flags,Ambient pressure (hPa),Sample flow (lpm),Bypass flow (lpm),Sample temperature (°C),Ambient temperature (°C),ASC tube jacket temperature (°C),LED temperature (°C),Box temperature (°C),Sample RH (%),Span deviation,Mass concentration (μg/m³),Mass concentration (μg/m³),Mass concentration (μg/m³)
DateTimeUTC,F1_M11,P_M11,Q1_M11,Q2_M11,T1_M11,T2_M11,T3_M11,T4_M11,T5_M11,U1_M11,ZSPAN_M11,X2_M11,X0_M11,X1_M11
2021-09-30 14:00:00,,0834.0,5.01,0.00,26.9,26.3,00.0,36.0,28.8,23.6,-002.3,0005.34,0008.05,0005.04
2021-09-30 14:01:00,,0834.0,4.99,0.00,26.9,26.3,00.0,36.0,28.8,23.5,-002.2,0005.34,0008.09,0005.03
2021-09-30 14:02:00,,0834.0,5.01,0.00,26.9,26.3,00.0,36.0,28.8,23.5,-002.3,0005.33,0008.09,0005.03
2021-09-30 14:03:00,,0833.9,5.00,0.00,26.9,26.3,00.0,36.0,28.8,23.5,-002.5,0005.33,0008.07,0005.04
2021-09-30 14:04:00,,0833.9,4.99,0.00,26.9,26.3,00.0,36.0,28.8,23.5,-002.6,0005.32,0008.03,0005.05
2021-09-30 14:05:00,,0833.9,5.01,0.00,26.9,26.3,00.0,36.0,28.8,23.6,-002.6,0005.28,0007.99,0005.04
2021-09-30 14:06:00,,0833.9,5.01,0.00,26.9,26.3,00.0,36.0,28.8,23.6,-002.5,0005.28,0007.95,0005.04
2021-09-30 14:07:00,,0833.9,5.00,0.00,27.0,26.3,00.0,36.0,28.8,23.6,-002.4,0005.32,0007.91,0005.04
2021-09-30 14:08:00,,0833.9,5.00,0.00,27.0,26.3,00.0,36.0,28.8,23.7,-002.2,0005.31,0007.83,0005.05
2021-09-30 14:09:00,,0834.0,4.99,0.00,27.0,26.3,00.0,36.0,28.8,23.7,-001.8,0005.31,0007.81,0005.06
2021-09-30 14:10:00,,0834.0,5.00,0.00,27.0,26.4,00.0,36.0,28.9,23.7,-001.4,0005.32,0007.85,0005.07
2021-09-30 14:11:00,,0834.0,5.01,0.00,27.1,26.4,00.0,36.0,28.9,23.5,-001.2,0005.36,0007.93,0005.10
2021-09-30 14:12:00,,0834.1,4.99,0.00,27.0,26.4,00.0,36.0,28.9,23.4,-001.1,0005.38,0008.10,0005.13
2021-09-30 14:13:00,,0834.0,5.00,0.00,27.0,26.4,00.0,36.1,28.9,23.5,-001.1,0005.41,0008.17,0005.16
2021-09-30 14:14:00,,0834.0,5.00,0.00,27.1,26.4,00.0,36.1,28.9,23.6,-001.1,0005.42,0008.20,0005.17
2021-09-30 14:15:00,,0833.9,4.99,0.00,27.1,26.4,00.0,36.1,28.9,23.7,-000.9,0005.44,0008.20,0005.19
2021-09-30 14:16:00,,0833.9,5.00,0.00,27.1,26.4,00.0,36.1,28.9,23.6,-000.7,0005.46,0008.18,0005.20
2021-09-30 14:17:00,,0833.9,4.99,0.00,27.1,26.4,00.0,36.1,28.9,23.4,-001.1,0005.46,0008.15,0005.20
2021-09-30 14:18:00,,0833.9,5.01,0.00,27.1,26.5,00.0,36.1,29.0,23.4,-001.3,0005.45,0008.12,0005.21
2021-09-30 14:19:00,,0833.9,5.02,0.00,27.1,26.5,00.0,36.1,29.0,23.4,-001.6,0005.49,0008.28,0005.23
2021-09-30 14:20:00,,0833.9,4.99,0.00,27.1,26.5,00.0,36.1,29.0,23.4,-001.9,0005.52,0008.38,0005.24
2021-09-30 14:21:00,,0833.9,5.01,0.00,27.2,26.5,00.0,36.1,29.0,23.4,-002.0,0005.52,0008.32,0005.24
2021-09-30 14:22:00,,0834.0,5.00,0.00,27.2,26.5,00.0,36.1,29.0,23.5,-002.4,0005.49,0008.27,0005.23
2021-09-30 14:23:00,,0834.0,4.99,0.00,27.2,26.5,00.0,36.2,29.0,23.5,-002.6,0005.48,0008.08,0005.22
2021-09-30 14:24:00,,0834.0,5.00,0.00,27.2,26.5,00.0,36.2,29.1,23.5,-002.7,0005.47,0007.98,0005.21
2021-09-30 14:25:00,,0834.0,5.01,0.00,27.2,26.5,00.0,36.2,29.0,23.4,-002.5,0005.49,0008.02,0005.21
2021-09-30 14:26:00,,0834.0,4.98,0.00,27.2,26.5,00.0,36.2,29.0,23.3,-002.7,0005.52,0008.09,0005.22
2021-09-30 14:27:00,,0834.0,5.01,0.00,27.2,26.5,00.0,36.2,29.0,23.1,-002.8,0005.53,0008.14,0005.24
2021-09-30 14:28:00,,0834.0,5.00,0.00,27.2,26.5,00.0,36.2,29.0,23.1,-002.8,0005.54,0008.19,0005.25
2021-09-30 14:29:00,,0834.0,4.99,0.00,27.2,26.5,00.0,36.2,29.0,23.2,-002.7,0005.54,0008.20,0005.25
2021-09-30 14:30:00,,0834.1,5.01,0.00,27.2,26.5,00.0,36.2,29.0,23.1,-002.3,0005.51,0008.03,0005.24
2021-09-30 14:31:00,,0834.0,5.01,0.00,27.2,26.5,00.0,36.2,29.0,23.1,-002.2,0005.49,0007.94,0005.24
2021-09-30 14:32:00,,0834.0,5.00,0.00,27.2,26.5,00.0,36.2,29.0,23.2,-002.3,0005.50,0007.96,0005.24
2021-09-30 14:33:00,,0834.0,4.99,0.00,27.2,26.5,00.0,36.2,29.0,23.2,-002.2,0005.53,0008.04,0005.26
2021-09-30 14:34:00,,0834.0,5.01,0.00,27.2,26.5,00.0,36.2,29.1,23.2,-002.2,0005.55,0008.13,0005.26
2021-09-30 14:35:00,,0834.0,5.00,0.00,27.2,26.5,00.0,36.2,29.1,23.2,-002.3,0005.53,0008.14,0005.25
2021-09-30 14:36:00,,0834.0,5.00,0.00,27.2,26.5,00.0,36.2,29.1,23.3,-002.7,0005.51,0008.20,0005.25
2021-09-30 14:37:00,,0834.0,5.00,0.00,27.2,26.5,00.0,36.2,29.1,24.1,-002.6,0005.49,0008.12,0005.24
2021-09-30 14:38:00,,0834.0,4.99,0.00,27.2,26.5,00.0,36.2,29.1,24.0,-002.5,0005.45,0008.02,0005.22
2021-09-30 14:39:00,,0834.0,5.00,0.00,27.2,26.5,00.0,36.2,29.1,23.1,-002.4,0005.47,0008.04,0005.22
2021-09-30 14:40:00,,0834.0,5.00,0.00,27.2,26.5,00.0,36.2,29.1,22.7,-002.4,0005.51,0008.09,0005.24
2021-09-30 14:41:00,,0834.0,5.00,0.00,27.2,26.5,00.0,36.2,29.1,22.7,-002.3,0005.53,0008.58,0005.26
2021-09-30 14:42:00,,0834.0,5.00,0.00,27.2,26.4,00.0,36.2,29.0,22.9,-002.2,0005.54,0008.72,0005.25
2021-09-30 14:43:00,,0834.0,5.01,0.00,27.2,26.4,00.0,36.2,29.0,22.8,-002.3,0005.54,0008.73,0005.26
2021-09-30 14:44:00,,0834.0,4.99,0.00,27.2,26.4,00.0,36.2,29.0,22.7,-002.5,0005.54,0008.69,0005.26
2021-09-30 14:45:00,,0834.1,4.99,0.00,27.2,26.4,00.0,36.2,29.0,22.8,-002.1,0005.56,0008.67,0005.27
2021-09-30 14:46:00,,0834.1,5.00,0.00,27.2,26.4,00.0,36.2,29.0,23.1,-001.7,0005.60,0008.80,0005.29
2021-09-30 14:47:00,,0834.1,5.00,0.00,27.2,26.5,00.0,36.2,29.0,23.2,-001.1,0005.60,0008.68,0005.30
2021-09-30 14:48:00,,0834.1,5.00,0.00,27.2,26.5,00.0,36.2,29.0,23.3,-000.9,0005.61,0008.79,0005.29
2021-09-30 14:49:00,,0834.1,4.99,0.00,27.2,26.5,00.0,36.2,29.1,23.2,-001.0,0005.63,0009.44,0005.29
2021-09-30 14:50:00,,0834.1,5.01,0.00,27.2,26.5,00.0,36.2,29.1,23.3,-001.1,0005.62,0009.79,0005.28
2021-09-30 14:51:00,,0834.1,4.99,0.00,27.2,26.5,00.0,36.2,29.1,23.6,-001.2,0005.57,0009.73,0005.24
2021-09-30 14:52:00,,0834.1,5.00,0.00,27.2,26.5,00.0,36.2,29.1,23.5,-001.3,0005.56,0009.28,0005.21
2021-09-30 14:53:00,,0834.1,4.99,0.00,27.2,26.5,00.0,36.2,29.1,23.3,-001.8,0005.55,0009.23,0005.20
2021-09-30 14:54:00,,0834.2,5.00,0.00,27.2,26.5,00.0,36.3,29.1,23.5,-001.6,0005.55,0009.25,0005.19
2021-09-30 14:55:00,,0834.3,5.01,0.00,27.2,26.5,00.0,36.3,29.1,23.7,-001.3,0005.51,0009.18,0005.17
2021-09-30 14:56:00,,0834.3,4.99,0.00,27.2,26.5,00.0,36.3,29.1,23.5,-001.5,0005.47,0009.11,0005.14
2021-09-30 14:57:00,,0834.3,4.99,0.00,27.2,26.5,00.0,36.3,29.1,23.8,-001.6,0005.44,0009.01,0005.12
2021-09-30 14:58:00,,0834.3,5.02,0.00,27.3,26.5,00.0,36.3,29.1,23.6,-001.9,0005.43,0009.11,0005.10
2021-09-30 14:59:00,,0834.3,4.98,0.00,27.3,26.5,00.0,36.3,29.1,23.5,-001.9,0005.39,0009.12,0005.09
